Flag for U.S.A. Weather past 2 weeks in Fort Bragg, California, U.S.A.

Now
69 °F

Clear.


Feels Like: 69 °F
Forecast: 59 / 67 °F
Wind: 6 mph from South

Location: Ukiah Municipal

Current Time: Aug 29, 2015 at 2:29:05 AM

Latest Report: Aug 29, 2015 at 1:56 AM


Visibility: 10 mi

Pressure: 29.87 "Hg

Humidity: 63%

Dew point: 56 °F

Location of Fort BraggLocation

Historic Weather in Fort Bragg — Graph

°F

Fort Bragg temperature yesterday

Maximum temperature yesterday: 95 °F (at 2:56 PM)
Minimum temperature yesterday: 62 °F (at 4:56 AM)
Average temperature yesterday: 77 °F

Past Weeks' High & Low Weather Summary

 TemperatureHumidityPressure
High104 °F (Aug 17, 3:56 PM)97% (Aug 21, 5:56 AM)30.07 "Hg (Aug 21, 5:56 AM)
Low52 °F (Aug 14, 5:56 AM)9% (Aug 16, 2:56 PM)29.74 "Hg (Aug 17, 4:56 PM)
Average72 °F52%29.90 "Hg
* Reported Aug 14 12:56 AM — Aug 29 12:56 AM, Fort Bragg, Weather by CustomWeather, © 2015

Note: Actual official high and low records may vary slightly from our data, if they occured in-between our weather recording intervals... More about our weather records

Advertising

Fort Bragg weather history for previous 24 hours

 ConditionsComfort  
Time TempWeatherWind HumidityBarometerVisibility
12:56 AM
Sat, Aug 29
71 °FClear.6 mph63%29.87 "Hg10 mi
11:56 PM
Fri, Aug 28
73 °FClear.6 mph57%29.85 "Hg10 mi
10:56 PM74 °FClear.8 mph56%29.85 "Hg10 mi
9:56 PM76 °FClear.3 mph52%29.84 "Hg10 mi
8:56 PM78 °FClear.5 mph50%29.83 "Hg10 mi
7:56 PM79 °FSunny.No wind47%29.80 "Hg10 mi
6:56 PM84 °FSunny.5 mph36%29.80 "Hg10 mi
5:56 PM90 °FSunny.8 mph25%29.80 "Hg10 mi
4:56 PM93 °FSunny.12 mph20%29.80 "Hg10 mi
3:56 PM94 °FSunny.13 mph19%29.80 "Hg10 mi
2:56 PM95 °FSunny.14 mph18%29.81 "Hg10 mi
1:56 PM93 °FSunny.12 mph26%29.83 "Hg10 mi
12:56 PM90 °FSunny.8 mph28%29.86 "Hg10 mi
11:56 AM81 °FSunny.5 mph38%29.89 "Hg10 mi
10:56 AM78 °FSunny.3 mph39%29.90 "Hg10 mi
9:56 AM73 °FSunny.3 mph50%29.91 "Hg10 mi
8:56 AM69 °FSunny.No wind55%29.92 "Hg10 mi
7:56 AM64 °FSunny.No wind63%29.92 "Hg10 mi
6:56 AM62 °FClear.No wind65%29.91 "Hg10 mi
5:56 AM64 °FClear.No wind58%29.91 "Hg10 mi
4:56 AM62 °FClear.3 mph62%29.93 "Hg10 mi
3:56 AM65 °FClear.No wind54%29.95 "Hg10 mi
2:56 AM68 °FClear.No wind53%29.96 "Hg10 mi
Weather by CustomWeather, © 2015

See weather overviewHow to use our weather pages